• Join FlightAware (Why Join?)
  • Login
  • US Flag 
12:43AM EST


 

Airport Tracker/Info


-or-


 

Live Flight TrackerFlight Track Log ✈ AAL1862 ✈ 06-May-2013 ✈ KDFW - KSTL

Flight Track Log - Related Links

Times and Time Zones

All times are in EDT time to prevent confusion due to time zone crossing. See the AAL1862 flight status page for this flight to view local times or setup timezone preferences in your user account.

Time Position Orientation Groundspeed Altitude Reporting Facility
EDT Latitude Longitude Course Direction KTS MPH feet Rate Location/Type
07:52AM 32.9167 -97.0333 357° North 173 199 1,500  Level Dallas / Fort Worth TRACON
07:54AM 32.8533 -96.8000 North  Level FlightAware Approximate
07:54AM 33.0311 -97.0294 North 240 276 7,700  Level Fort Worth Center
07:55AM 32.9728 -96.8000 North  Level FlightAware Approximate
07:55AM 33.1083 -97.0117 11° North 240 276 11,000  Level Fort Worth Center
07:56AM 33.0921 -96.8018 357° North  Level FlightAware Approximate
07:57AM 33.2113 -96.8103 357° North  Level FlightAware Approximate
07:57AM 33.2686 -96.9217 25° Northeast 317 365 15,800  Level Fort Worth Center
07:58AM 33.3542 -96.8764 24° Northeast 356 410 18,300 2,580 Climbing Fort Worth Center
07:59AM 33.4603 -96.8208 24° Northeast 368 423 21,000 2,400 Climbing Fort Worth Center
08:00AM 33.5539 -96.7603 28° Northeast 377 434 23,200 2,100 Climbing Fort Worth Center
08:01AM 33.6539 -96.6947 29° Northeast 394 453 25,300 1,860 Climbing Fort Worth Center
08:02AM 33.7536 -96.6292 29° Northeast 401 461 27,000 1,680 Climbing Fort Worth Center
08:03AM 33.8511 -96.5556 32° Northeast 412 474 28,700 1,740 Climbing Fort Worth Center
08:04AM 33.9486 -96.4694 36° Northeast 418 481 30,500 1,620 Climbing Fort Worth Center
08:05AM 34.0439 -96.3808 38° Northeast 423 487 32,000 1,260 Climbing Fort Worth Center
08:07AM 34.2406 -96.2075 36° Northeast 429 494 34,400 1,260 Climbing Fort Worth Center
08:08AM 34.3378 -96.1233 36° Northeast 429 494 35,800 960 Climbing Fort Worth Center
08:09AM 34.4350 -96.0386 36° Northeast 429 494 36,400 540 Climbing Fort Worth Center
08:10AM 34.5300 -95.9514 37° Northeast 429 494 36,900 300 Climbing Fort Worth Center
08:11AM 34.6292 -95.8639 36° Northeast 436 502 37,000  Climbing Fort Worth Center
08:12AM 34.7239 -95.7789 36° Northeast 428 493 37,000  Level Fort Worth Center
08:13AM 34.8189 -95.6961 36° Northeast 428 493 37,000  Level Fort Worth Center
08:14AM 34.9197 -95.6106 35° Northeast 428 493 37,000  Level Fort Worth Center
08:15AM 35.0042 -95.5353 36° Northeast 435 501 37,000  Level Fort Worth Center
08:16AM 35.1008 -95.4469 37° Northeast 430 495 37,000  Level Fort Worth Center
08:17AM 35.1969 -95.3628 36° Northeast 429 494 37,000  Level Memphis Center
08:18AM 35.2922 -95.2742 37° Northeast 434 499 37,000  Level Memphis Center
08:19AM 35.3872 -95.1883 36° Northeast 429 494 37,000  Level Memphis Center
08:20AM 35.4825 -95.1019 36° Northeast 424 488 37,000  Level Memphis Center
08:21AM 35.5775 -95.0128 37° Northeast 424 488 37,000  Level Memphis Center
08:22AM 35.6725 -94.9236 37° Northeast 429 494 37,000  Level Memphis Center
08:23AM 35.7694 -94.8369 36° Northeast 429 494 37,000  Level Memphis Center
08:24AM 35.8644 -94.7472 37° Northeast 429 494 37,000  Level Memphis Center
08:25AM 35.9614 -94.6575 37° Northeast 429 494 37,000  Level Memphis Center
08:27AM 36.1300 -94.5019 37° Northeast 432 497 37,000  Level Kansas City Center
08:28AM 36.2456 -94.3942 37° Northeast 433 498 37,000  Level Kansas City Center
08:29AM 36.3411 -94.3042 37° Northeast 433 498 37,000  Level Kansas City Center
08:30AM 36.4369 -94.2150 37° Northeast 432 497 37,000  Level Kansas City Center
08:31AM 36.5286 -94.1292 37° Northeast 420 483 37,000  Level Kansas City Center
08:32AM 36.6208 -94.0419 37° Northeast 416 479 37,000  Level Kansas City Center
08:33AM 36.7128 -93.9553 37° Northeast 415 478 37,000  Level Kansas City Center
08:34AM 36.8047 -93.8661 38° Northeast 417 480 37,000 -240 Level Kansas City Center
08:36AM 36.9580 -93.7173 38° Northeast  Level FlightAware Approximate
08:37AM 37.0806 -93.6006 38° Northeast 415 478 36,200  Level Kansas City Center
08:38AM 37.1922 -93.4953 37° Northeast 416 479 35,100 -600 Descending Kansas City Center
08:39AM 37.2847 -93.4044 38° Northeast 420 483 35,000 -300 Descending Kansas City Center
08:40AM 37.3775 -93.3133 38° Northeast 420 483 34,600 -720 Descending Kansas City Center
08:41AM 37.4608 -93.2147 43° Northeast 414 476 33,600 -840 Descending Kansas City Center
08:42AM 37.5461 -93.1147 43° Northeast 415 478 33,000 -300 Descending Kansas City Center
08:43AM 37.6300 -93.0167 43° Northeast 413 475 33,000  Level Kansas City Center
08:44AM 37.7142 -92.9169 43° Northeast 412 474 33,000  Level Kansas City Center
08:45AM 37.7983 -92.8161 43° Northeast 415 478 33,000  Level Kansas City Center
08:46AM 37.8792 -92.7206 43° Northeast 412 474 33,000 -900 Level Kansas City Center
08:48AM 38.0642 -92.5006 43° Northeast 418 481 30,400 -1,380 Descending Kansas City Center
08:49AM 38.1322 -92.3794 54° Northeast 428 493 28,900 -1,440 Descending Kansas City Center
08:51AM 38.2019 -92.2040 63° Northeast  Level FlightAware Approximate
08:51AM 38.2442 -92.1425 63° Northeast 402 463 26,000  Level Kansas City Center
08:52AM 38.2994 -92.0258 59° Northeast 389 448 24,600 -660 Descending Kansas City Center
08:54AM 38.3929 -91.8808 51° Northeast  Level FlightAware Approximate
08:54AM 38.4203 -91.7756 51° Northeast 374 430 24,000  Level Kansas City Center
08:55AM 38.4747 -91.6625 58° Northeast 373 429 22,300 -1,800 Descending Kansas City Center
08:56AM 38.5289 -91.5497 58° Northeast 372 428 20,400 -1,920 Descending Kansas City Center
08:57AM 38.5839 -91.4350 58° Northeast 375 432 18,400 -1,980 Descending Kansas City Center
08:58AM 38.6394 -91.3192 58° Northeast 373 429 16,400 -1,620 Descending Kansas City Center
08:59AM 38.6889 -91.2133 59° Northeast 352 405 15,100 -1,080 Descending Kansas City Center
09:00AM 38.6936 -91.0986 87° East 332 382 14,200 -1,200 Descending Kansas City Center
09:01AM 38.6939 -90.9883 90° East 319 367 12,700 -1,440 Descending Kansas City Center
09:02AM 38.6975 -90.8828 87° East 308 354 11,300 -1,500 Descending Kansas City Center
09:03AM 38.7039 -90.7669 86° East 286 329 9,700 -1,440 Descending Kansas City Center
09:04AM 38.7081 -90.6761 87° East 271 312 8,400 -840 Descending Kansas City Center
09:06AM 38.7117 -90.5878 87° East 259 298 8,000 -300 Descending Kansas City Center
09:07AM 38.7094 -90.4992 92° East 260 299 7,800 -1,320 Descending Kansas City Center
09:08AM 38.6667 -90.3833 115° Southeast 221 254 4,800 -1,620 Descending Gateway (St. Louis) TRACON
09:09AM 38.6500 -90.3167 108° East 190 219 3,700 -1,140 Descending Gateway (St. Louis) TRACON
09:10AM 38.6594 -90.2831 70° East 195 224 3,100 -1,020 Descending Kansas City Center
09:12AM 38.7225 -90.3075 343° North 153 176 1,200 -840 Descending Kansas City Center
09:13AM 38.7414 -90.3444 303° West 137 158 600 -600 Descending Kansas City Center